Charles-Etienne Chrétien

Human Powered Health

Charles-Etienne Chrétien is a cyclist from Canada (born June 19th 1999), who currently rides for Human Powered Health (UCI ProTeam).

Information

2022 2021 2020 2019 2018 2017 2016

Premier Tech U23 Cycling Project (Continental) UCI Ranking: 2187 (8pts) UCI: Race days: 42 UCI: Distance: 6.521km
Date Pos GC Race UCI
02.10 CRO Race | 2.1 2022-10-02 Show more
02.10 103 CRO Race | Overall 2022-10-02
17.09 Okolo Slovenska | 2.1 2022-09-17 Show more
17.09 58 Okolo Slovenska | Overall 2022-09-17
15.08 Volta a Portugal | 2.1 2022-08-15 Show more
15.08 60 Volta a Portugal | Overall 2022-08-15
31.07 Tour Alsace | 2.2 2022-07-31 Show more
31.07 DNF Tour Alsace | Overall 2022-07-31
24.07 47 GP de Perenchies | 1.2 2022-07-24Show more
05.06 Ronde de l'Oise | 2.2 2022-06-05 Show more
05.06 DNF Ronde de l'Oise | Overall 2022-06-05
21.05 DNS Tour du Finistère | 1.1 2022-05-21Show more
15.05 49 Tro-Bro Leon | 1.Pro 2022-05-15Show more
14.05 65 GP de Plumelec-Morbihan | 1.Pro 2022-05-14Show more
08.05 7 Flèche Ardennaise | 1.2 2022-05-085Show more
27.03 Tour de Normandie | 2.2 2022-03-27 Show more
27.03 9 Tour de Normandie | Overall 2022-03-273
09.04 Circuit des Ardennes | 2.2 2022-04-09 Show more
09.04 DNF Circuit des Ardennes | Overall 2022-04-09
27.03 9 Tour de Normandie | Youth 2022-03-27
27.03 17 Tour de Normandie | Points 2022-03-27
27.03 11 Tour de Normandie | Mountain 2022-03-27
17.09 30 Okolo Slovenska | Mountain 2022-09-17
27.03 19 Tour de Normandie | Sprint 2022-03-27
27.03 7 Tour de Normandie | Combination 2022-03-27
02.10 109 103 CRO Race | 6th stage 2022-10-02
01.10 101 102 CRO Race | 5th stage 2022-10-01
30.09 90 93 CRO Race | 4th stage 2022-09-30
29.09 121 95 CRO Race | 3rd stage 2022-09-29
28.09 55 64 CRO Race | 2nd stage 2022-09-28
27.09 67 68 CRO Race | 1st stage 2022-09-27
17.09 128 58 Okolo Slovenska | 4th stage 2022-09-17
16.09 43 41 Okolo Slovenska | 3rd stage 2022-09-16
15.09 65 44 Okolo Slovenska | 2nd stage 2022-09-15
14.09 37 15 Okolo Slovenska | 1st stage 2022-09-14
13.09 17 17 Okolo Slovenska | Prologue 2022-09-13
15.08 64 60 Volta a Portugal | 10th stage 2022-08-15
14.08 86 60 Volta a Portugal | 9th stage 2022-08-14
13.08 94 53 Volta a Portugal | 8th stage 2022-08-13
12.08 69 50 Volta a Portugal | 7th stage 2022-08-12
11.08 73 43 Volta a Portugal | 6th stage 2022-08-11
10.08 34 44 Volta a Portugal | 5th stage 2022-08-10
08.08 15 60 Volta a Portugal | 4th stage 2022-08-08
07.08 64 63 Volta a Portugal | 3rd stage 2022-08-07
06.08 30 48 Volta a Portugal | 2nd stage 2022-08-06
05.08 19 52 Volta a Portugal | 1st stage 2022-08-05
04.08 59 59 Volta a Portugal | Prologue 2022-08-04
29.07 DNF Tour Alsace | 3rd stage 2022-07-29
28.07 58 72 Tour Alsace | 2nd stage 2022-07-28
27.07 40 116 Tour Alsace | 1st stage | TTT 2022-07-27
05.06 DNS Ronde de l'Oise | 4th stage 2022-06-05
04.06 76 73 Ronde de l'Oise | 3rd stage 2022-06-04
03.06 89 75 Ronde de l'Oise | 2nd stage 2022-06-03
02.06 28 31 Ronde de l'Oise | 1st stage 2022-06-02
09.04 DNF Circuit des Ardennes | 4th stage 2022-04-09
07.04 68 85 Circuit des Ardennes | 2nd stage 2022-04-07
06.04 92 92 Circuit des Ardennes | 1st stage 2022-04-06
27.03 44 9 Tour de Normandie | 7th stage 2022-03-27
26.03 101 9 Tour de Normandie | 6th stage 2022-03-26
25.03 19 8 Tour de Normandie | 5th stage 2022-03-25
24.03 11 8 Tour de Normandie | 4th stage 2022-03-24
23.03 30 8 Tour de Normandie | 3rd stage 2022-03-23
22.03 18 3 Tour de Normandie | 2nd stage 2022-03-22
21.03 4 4 Tour de Normandie | 1st stage 2022-03-21